Weather History for Springfield, MO

Change the Weather History Date:

Tuesday, December 10, 2013

  Actual Average Record
Temperature  
Mean Temperature 14 °F 36 °F  
Max Temperature 27 °F 46 °F 71 °F (1996)
Min Temperature 1 °F 26 °F -5 °F (1995)
Degree Days  
Heating Degree Days 51 29  
Month to date heating degree days 343 277  
Since 1 July heating degree days 1280 1156  
Cooling Degree Days 0 0  
Month to date cooling degree days 0 0  
Year to date cooling degree days 1417 1389  
Moisture  
Dew Point 9 °F    
Average Humidity 73    
Maximum Humidity 96    
Minimum Humidity 50    
Precipitation  
Precipitation T in 0.11 in 2.56 in (1897)
Month to date precipitation 0.55 1.13  
Year to date precipitation 49.83 43.66  
Snow  
Snow 0.30 in - - ()
Month to date snowfall 11.9  
Since 1 July snowfall 11.9  
Snow Depth 9.00 in    
Sea Level Pressure  
Sea Level Pressure 30.36 in    
Wind  
Wind Speed 6 mph (SW)    
Max Wind Speed 14 mph    
Max Gust Speed 18 mph    
Visibility 8 miles    
Events Snow    
T = Trace of Precipitation, MM = Missing Value Source: NWS Daily Summary

Daily Weather History Graph

Daily Weather History Graph

Search for Another Location

Airport:

Trip Planner

Search our weather history database for the weather conditions in past years. The results will help you decide how hot, cold, wet, or windy it might be!

Date:

Astronomy

Dec. 10, 2013 Rise Set
Actual Time 7:16 AM CST 4:56 PM CST
Civil Twilight 6:47 AM CST 5:25 PM CST
Nautical Twilight 6:15 AM CST 5:57 PM CST
Astronomical Twilight 5:43 AM CST 6:29 PM CST
Moon 12:51 PM CST (12/10) 12:43 AM CST (12/10)
Length of Visible Light 10h 37m
Length of Day
9h 39m
Waxing Gibbous, 62% of the Moon is Illuminated
Dec 10
Waxing Gibbous
Dec 17
Full
Dec 25
Last Quarter
Jan 1
New
Jan 7
First Quarter

Hourly Weather History & Observations

Time (CST) Temp. Windchill Dew Point Humidity Pressure Visibility Wind Dir Wind Speed Gust Speed Precip Events Conditions
12:19 AM 17.1 °F 5.8 °F 12.9 °F 84% 30.29 in 2.0 mi NW 9.2 mph - 0.00 in Snow Light Snow
12:27 AM 17.1 °F 6.6 °F 12.9 °F 84% 30.29 in 2.5 mi WNW 8.1 mph - 0.00 in Snow Light Snow
12:49 AM 15.8 °F 5.1 °F 12.2 °F 86% 30.30 in 3.0 mi WNW 8.1 mph - 0.00 in Snow Light Snow
12:52 AM 16.0 °F 5.3 °F 12.9 °F 88% 30.36 in 4.0 mi WNW 8.1 mph - 0.00 in Snow Light Snow
1:52 AM 15.1 °F 4.2 °F 10.9 °F 84% 30.36 in 6.0 mi WNW 8.1 mph - 0.00 in Snow Light Snow
2:52 AM 12.0 °F 2.7 °F 9.0 °F 88% 30.37 in 10.0 mi West 5.8 mph - 0.00 in   Clear
3:52 AM 10.9 °F -0.8 °F 8.1 °F 88% 30.40 in 8.0 mi WNW 8.1 mph - N/A   Clear
4:52 AM 6.1 °F -2.8 °F 3.0 °F 87% 30.36 in 9.0 mi SSW 4.6 mph - N/A   Clear
5:52 AM 5.0 °F -2.1 °F 3.9 °F 95% 30.37 in 8.0 mi SSW 3.5 mph - N/A   Clear
6:52 AM 5.0 °F -6.9 °F 1.9 °F 87% 30.39 in 9.0 mi South 6.9 mph - N/A   Clear
7:52 AM 7.0 °F -6.6 °F 1.9 °F 80% 30.38 in 10.0 mi SSW 9.2 mph - N/A   Clear
8:52 AM 9.0 °F -3.2 °F 5.0 °F 84% 30.40 in 10.0 mi South 8.1 mph - N/A   Clear
9:52 AM 17.1 °F 5.0 °F 8.1 °F 68% 30.42 in 10.0 mi WSW 10.4 mph - N/A   Clear
10:52 AM 21.9 °F 12.5 °F 7.0 °F 53% 30.43 in 10.0 mi West 8.1 mph - N/A   Clear
11:52 AM 23.0 °F 15.8 °F 10.0 °F 58% 30.40 in 10.0 mi SW 5.8 mph - N/A   Clear
12:52 PM 26.1 °F 21.9 °F 10.9 °F 53% 30.38 in 10.0 mi WSW 3.5 mph - N/A   Clear
1:52 PM 26.1 °F 20.5 °F 12.0 °F 55% 30.34 in 10.0 mi South 4.6 mph - N/A   Clear
5:52 PM 12.9 °F 6.9 °F 7.0 °F 77% 30.35 in 10.0 mi South 3.5 mph - N/A   Clear
6:52 PM 16.0 °F 8.8 °F 10.0 °F 77% 30.34 in 10.0 mi SE 4.6 mph - N/A   Clear
7:52 PM 16.0 °F 7.4 °F 9.0 °F 74% 30.34 in 10.0 mi South 5.8 mph - N/A   Clear
8:52 PM 24.1 °F 13.1 °F 14.0 °F 65% 30.30 in 10.0 mi South 11.5 mph - N/A   Clear
9:52 PM 23.0 °F 11.7 °F 14.0 °F 68% 30.30 in 10.0 mi South 11.5 mph - N/A   Clear
10:52 PM 19.0 °F - 10.9 °F 71% 30.31 in 10.0 mi Calm Calm - N/A   Clear
11:52 PM 14.0 °F - 8.1 °F 77% 30.33 in 10.0 mi Calm Calm - N/A   Clear